Location: Curicchi
(45.0167°N, 12.0500°E)
Time: 15:32:43
(UTC+00:00)

Envisat - Pass Details

Date: 09 August 2021
Orbit: 764 x 766 km, 98.2° (Epoch: 17 September)

Event Time Altitude Azimuth Distance (km) Brightness Sun altitude
Rises 03:06:32 0° 32° (NNE) 3,242 7.6 -10.1°
Reaches altitude 10° 03:10:01 10° 57° (ENE) 2,308 7.2 -9.6°
Maximum altitude 03:12:40 14° 88° (E) 2,028 6.1 -9.2°
Drops below altitude 10° 03:15:18 10° 120° (ESE) 2,299 5.9 -8.8°
Sets 03:18:44 0° 145° (SE) 3,218 6.3 -8.3°
